W4BRM Weather Reports


time (UTC)temp
F
wind
direction
speed
knots
gust
knots
rain 1hr
in
rain 24hr
in
rain mn
in
humidity
%
barometer
mb
20260507180405 59 353 0.0 0.0 0.00 0.07 0.02 49 1007.4
20260507173345 59 353 0.0 0.0 0.00 0.07 0.02 50 1007.8
20260507170349 57 353 0.0 0.0 0.00 0.07 0.02 50 1008.3
20260507163346 56 353 0.0 0.0 0.00 0.07 0.02 53 1008.8
20260507160353 55 353 0.0 0.0 0.00 0.07 0.02 55 1009.0
20260507153416 52 353 0.0 0.0 0.00 0.07 0.02 57 1009.4
20260507150343 51 353 0.0 0.0 0.00 0.07 0.02 57 1009.5
20260507143341 51 353 0.0 0.0 0.00 0.10 0.02 59 1009.9
20260507140346 49 353 0.0 0.0 0.00 0.10 0.02 59 1010.0
20260507133409 49 353 0.0 0.0 0.00 0.16 0.02 59 1010.5
20260507130357 49 353 0.0 0.0 0.00 0.16 0.02 59 1010.1
20260507123413 49 353 0.0 0.0 0.00 0.24 0.02 58 1010.5
20260507120358 49 353 0.0 0.0 0.00 0.24 0.02 59 1010.2
20260507113337 50 353 0.0 0.0 0.00 0.25 0.02 56 1010.0
20260507103354 0 0.0 0.0 0.00 0.25 0.02 1009.5
20260507100354 0 0.0 0.0 0.00 0.25 0.02 1009.4
20260507093354 0 0.0 0.0 0.00 0.25 0.02 1009.2
20260507090401 0 0.0 0.0 0.00 0.25 0.02 1008.9
20260507083340 51 353 0.0 0.0 0.00 0.25 0.02 1 1008.9
20260507080347 51 353 0.0 0.0 0.00 0.25 0.02 1 1008.9
20260507073350 51 353 0.0 0.0 0.00 0.25 0.02 1 1008.4
20260507070418 51 353 0.0 0.0 0.01 0.25 0.02 1 1008.4
20260507063355 52 353 0.0 0.0 0.01 0.25 0.02 1 1008.4
20260507060342 52 353 0.0 0.0 0.01 0.24 0.01 1 1008.5
20260507053346 52 353 0.0 0.0 0.01 0.24 0.01 1 1008.7
20260507050354 53 353 0.0 0.0 0.00 0.23 0.00 1 1008.7
20260507043354 54 353 0.0 0.0 0.02 0.23 0.00 1 1008.8
20260507040359 55 353 0.0 0.0 0.02 0.23 0.00 1 1008.2
20260507033400 57 353 0.0 0.0 0.00 0.21 0.21 1 1007.9
20260507030348 57 353 0.0 0.0 0.00 0.21 0.21 1 1008.2
20260507023413 59 353 0.0 0.0 0.00 0.21 0.21 1 1007.3
20260507020352 60 353 0.0 0.0 0.00 0.21 0.21 1 1007.5
20260507013355 61 353 0.0 0.0 0.00 0.21 0.21 1 1007.2
20260507010342 62 353 0.0 0.0 0.00 0.21 0.21 1 1007.8
20260507003400 63 353 0.0 0.0 0.00 0.21 0.21 1 1007.4
20260507000343 64 353 0.0 0.0 0.03 0.21 0.21 1 1007.3
20260506233341 64 353 0.0 0.0 0.03 0.21 0.21 1 1006.8
20260506230346 65 353 0.0 0.0 0.00 0.18 0.18 1 1006.4
20260506223407 66 353 0.0 0.0 0.00 0.18 0.18 1 1006.2
20260506220349 66 353 0.0 0.0 0.00 0.18 0.18 1 1006.1
20260506213349 66 353 0.0 0.0 0.00 0.18 0.18 1 1005.7
20260506210356 67 353 0.0 0.0 0.00 0.18 0.18 1 1005.8
20260506203356 66 353 0.0 0.0 0.00 0.18 0.18 1 1005.3
20260506200420 66 353 0.0 0.0 0.00 0.18 0.18 1 1005.7
20260506193343 65 353 0.0 0.0 0.00 0.18 0.18 1 1005.6
20260506190349 64 353 0.0 0.9 0.00 0.18 0.18 1 1005.9
20260506183348 63 353 0.0 0.0 0.00 0.18 0.18 1 1006.0